CZ-2F DEB, 67719

Orbit data source: Space-Track

CZ-2F DEB, 67719 is space debris in LEO originally from a launch on Sat, 07 Feb 2026 UTC launched from the Jiuquan Satellite Launch Center, China (JSC). Debris objects in space refer to the collection of defunct objects orbiting the Earth. Examples of debris include non-operational satellites, rocket bodies, and fragments generated from explosions, collisions, or faulty payload assembly.

Loading next visibility...
Identifier
67719, 2026-024F
Orbit
LEO
Country
Flag of CNCN / PRC
Related business
Manufacturer
CALT?
Mission
Spacecraft
Bus & Motor
Unknown
Mass
1 kg wet, 1 kg dry
Launch date (UTC)
2026-02-07 (2 months ago)
Launch vehicle
Unknown
Launch site
Jiuquan Satellite Launch Center, China (JSC)
Object type
Payload
Rocket body
Debris
Shape & HBR
Unknown shape, 1.1 m
Radar Cross Section
RCS unknown

Expand to show TLE details & history
Last TLE update: 6 hours ago

TLE from 6 hours ago
0 CZ-2F DEB
1 67719U 26024F   26104.27816657  .00107498  00000-0  21463-2 0  9996
2 67719  49.7853 209.0288 0262758  56.3259 306.2452 15.16681079  9620
Epoch: 2026-04-14T06:40Z
TLE epoch observation values (Epoch: 2026-04-14T06:40:33.591Z)
Latitude
-0°
Longitude
-93.56788°
Altitude
412.479 km
Speed
7.722 km/s
True Right ascension
13h 56m 06s
True Declination
0° 00' 00"
Sunlit
Object was in full shadow at epoch
Visualization orbit readout
Latitude
Unknown
Longitude
Unknown
Altitude
Unknown
Speed
Unknown
Apparent Right ascension
Unknown
Apparent Declination
Unknown
Sunlit
N/A
Visualization observer readout
Local Sidereal Time
19:34:50
Azimuth
Unknown
Elevation
Unknown
Doppler factor
Unknown
Orbital elements
Apogee altitude
697.852 km
Perigee altitude
335.518 km
Semi-major axis
6,894.822 km
Eccentricity
0.02628
Inclination
49.7853°
RAAN
209.0288°
Arg. of periapsis
56.3259°
True anomaly
303.76958°
Mean anomaly
306.2452°
Eccentric anomaly
305.01216°
Mean motion
3.79104 °/min
Orbital period
94.96 mins
BSTAR
0.0021463
Loading maneuver chart data...
Computing Atmospheric mass density...
Loading historical data...
Loading historical data...
Loading historical data...
Loading historical data...
Loading historical data...
Loading historical data...
Loading historical data...

Documentation

Showing up to 5 results
|